Le nostre stazioni meteo in Italia

Pubblicità
Il mio iltempo24.it
Capo Carbonara, Italia (16564): Temperatura & dewpoint: 10.07.2018 20:00:00 - 16.07.2018 20:00:00 (CEST)Capo Carbonara, Italia (16564): velocità del vento: 10.07.2018 20:00:00 - 16.07.2018 20:00:00 (CEST)Capo Carbonara, Italia (16564): direzione del vento: 10.07.2018 20:00:00 - 16.07.2018 20:00:00 (CEST)Capo Carbonara, Italia (16564): reduced air pressure: 10.07.2018 20:00:00 - 16.07.2018 20:00:00 (CEST)Capo Carbonara, Italia (16564): visibility: 10.07.2018 20:00:00 - 16.07.2018 20:00:00 (CEST)
Data & Tempo tt [°C] td [°C] ff [km/h] ff [kn] dd ppp [hPa] vv [km]
16.07.2018 20:00:00 29,6 24,3 26 14 O 1011,7 10
16.07.2018 19:00:00 29,0 24,0 31 17 O - 10
16.07.2018 18:00:00 - - - - - - -
16.07.2018 17:00:00 28,6 25,8 18 10 ESE 1011,5 14
16.07.2018 16:00:00 28,0 25,0 35 19 E - 10
16.07.2018 15:00:00 33,0 28,0 15 8 ESE - 10
16.07.2018 14:00:00 32,6 27,6 13 7 ESE 1013,8 14
16.07.2018 13:00:00 30,0 26,0 15 8 S - 10
16.07.2018 12:00:00 30,0 23,0 13 7 SSO - 10
16.07.2018 11:00:00 29,8 20,4 9 5 SO 1013,7 10
16.07.2018 10:00:00 26,0 24,0 41 22 OSO - 10
16.07.2018 09:00:00 26,0 24,0 8 4 ESE - 10
16.07.2018 08:00:00 25,0 23,1 11 6 ENE 1012,8 8
16.07.2018 07:00:00 25,0 23,0 16 9 SSE - 6
16.07.2018 06:00:00 26,0 24,0 5 3 - - 6
16.07.2018 05:00:00 24,8 23,0 29 16 OSO 1014,2 3,0
16.07.2018 04:00:00 25,0 23,0 28 15 SSO - 3,0
16.07.2018 03:00:00 25,0 23,0 9 5 SE - 2,0
16.07.2018 02:00:00 25,2 23,6 15 8 E 1013,7 3,0
16.07.2018 01:00:00 25,0 23,0 22 12 ENE - 8
16.07.2018 00:00:00 25,0 24,0 15 8 ENE - 8
15.07.2018 23:00:00 25,8 24,0 9 5 E 1014,3 8
15.07.2018 22:00:00 - - - - - - -
15.07.2018 21:00:00 - - - - - - -
15.07.2018 20:00:00 28,0 24,0 5 3 ENE - 10
15.07.2018 19:00:00 29,0 24,0 11 6 SO - 10
15.07.2018 18:00:00 29,0 24,0 16 9 SSO - 10
15.07.2018 17:00:00 29,0 24,1 15 8 SSO 1014,0 12
15.07.2018 16:00:00 29,0 24,0 11 6 SSO - 10
15.07.2018 15:00:00 29,0 24,0 16 9 SSO - 10
15.07.2018 14:00:00 29,0 23,0 22 12 SSO 1014,8 14
15.07.2018 13:00:00 29,0 23,0 15 8 SSO - 10
15.07.2018 12:00:00 29,0 23,0 18 10 O - 10
15.07.2018 11:00:00 27,8 23,6 9 5 NE 1014,6 10
15.07.2018 10:00:00 26,0 20,0 11 6 E - 10
15.07.2018 09:00:00 28,0 22,0 8 4 ENE - 10
15.07.2018 08:00:00 26,2 21,6 29 16 OSO 1013,9 18
15.07.2018 07:00:00 27,0 22,0 26 14 OSO - 10
15.07.2018 06:00:00 27,0 22,0 22 12 O - 10
15.07.2018 05:00:00 26,6 22,0 35 19 O 1013,4 12
15.07.2018 04:00:00 27,0 22,0 37 20 O - 10
15.07.2018 03:00:00 27,0 22,0 35 19 O - 10
15.07.2018 02:00:00 27,4 22,4 31 17 O 1013,6 12
15.07.2018 01:00:00 27,0 22,0 37 20 O - 10
15.07.2018 00:00:00 28,0 23,0 26 14 O - 10
14.07.2018 23:00:00 28,2 22,4 37 20 O 1013,7 10
14.07.2018 22:00:00 27,0 23,0 15 8 OSO - 10
14.07.2018 21:00:00 28,0 23,0 8 4 OSO - 10
14.07.2018 20:00:00 30,0 25,0 18 10 SO 1013,3 10
14.07.2018 19:00:00 31,0 25,0 15 8 SSO - 10
14.07.2018 18:00:00 32,0 26,0 9 5 E - 10
14.07.2018 17:00:00 30,8 25,9 13 7 ENE 1014,3 20
14.07.2018 16:00:00 31,0 25,0 31 17 NE - 10
14.07.2018 15:00:00 31,0 24,0 29 16 ENE - 10
14.07.2018 14:00:00 30,8 23,7 34 18 NE 1014,7 20
14.07.2018 13:00:00 30,0 23,0 35 19 NE - 10
14.07.2018 12:00:00 30,0 22,0 37 20 ENE - 10
14.07.2018 11:00:00 29,0 21,8 42 23 NE 1014,8 20
14.07.2018 10:00:00 28,0 22,0 42 23 NE - 10
14.07.2018 09:00:00 28,0 21,0 46 25 NE - 10
14.07.2018 08:00:00 27,2 16,5 42 23 NE 1013,7 18
14.07.2018 07:00:00 27,0 19,0 52 28 OSO - 10
14.07.2018 06:00:00 27,0 18,0 34 18 NE - 10
14.07.2018 05:00:00 27,0 16,0 31 17 NE 1014,4 10
14.07.2018 04:00:00 27,0 17,0 24 13 ENE - 10
14.07.2018 03:00:00 27,0 16,0 31 17 NE - 10
14.07.2018 02:00:00 26,8 17,0 31 17 NE 1016,3 18
14.07.2018 01:00:00 27,0 19,0 34 18 NE - 10
14.07.2018 00:00:00 27,0 22,0 34 18 NE - 10
13.07.2018 23:00:00 26,6 22,0 34 18 N 1015,7 10
13.07.2018 22:00:00 27,0 22,0 34 18 NE - 10
13.07.2018 21:00:00 27,0 22,0 37 20 NE - 10
13.07.2018 20:00:00 28,0 22,9 39 21 NE 1014,9 10
13.07.2018 19:00:00 28,0 23,0 41 22 NE - 10
13.07.2018 18:00:00 29,0 23,0 37 20 NE - 10
13.07.2018 17:00:00 29,0 21,8 39 21 ENE 1014,7 10
13.07.2018 16:00:00 30,0 16,0 37 20 ENE - 10
13.07.2018 15:00:00 30,0 13,0 35 19 ENE - 10
13.07.2018 14:00:00 31,0 13,8 37 20 NE 1015,5 18
13.07.2018 13:00:00 32,0 14,0 34 18 NE - 10
13.07.2018 12:00:00 31,0 14,0 37 20 NE - 10
13.07.2018 11:00:00 30,0 14,1 37 20 NE 1015,2 10
13.07.2018 10:00:00 29,0 15,0 31 17 NE - 10
13.07.2018 09:00:00 28,0 16,0 29 16 NE - 10
13.07.2018 08:00:00 26,0 17,4 29 16 NE 1014,5 18
13.07.2018 07:00:00 25,0 18,0 28 15 NE - 10
13.07.2018 06:00:00 25,0 18,0 26 14 NE - 10
13.07.2018 05:00:00 25,6 18,5 18 10 NE 1014,5 20
13.07.2018 04:00:00 - - - - - - -
13.07.2018 03:00:00 26,0 19,0 21 11 NE - 10
13.07.2018 02:00:00 25,6 19,0 22 12 NE 1014,7 20
13.07.2018 01:00:00 26,0 19,0 22 12 NE - 10
13.07.2018 00:00:00 26,0 21,0 22 12 NE - 10
12.07.2018 23:00:00 25,6 21,2 26 14 NE 1014,8 20
12.07.2018 22:00:00 26,0 21,0 24 13 NE - 10
12.07.2018 21:00:00 26,0 22,0 24 13 NE - 10
12.07.2018 20:00:00 27,4 23,3 24 13 ENE 1014,5 20
12.07.2018 19:00:00 28,0 24,0 24 13 ENE - 10
12.07.2018 18:00:00 29,0 24,0 26 14 ENE - 10
12.07.2018 17:00:00 28,8 22,8 26 14 ENE 1014,5 25
12.07.2018 16:00:00 29,0 24,0 26 14 ENE - 10
12.07.2018 15:00:00 30,0 24,0 24 13 ENE - 10
12.07.2018 14:00:00 29,4 23,8 22 12 ENE 1014,7 30
12.07.2018 13:00:00 29,0 22,0 21 11 ENE - 10
12.07.2018 12:00:00 29,0 22,0 18 10 ENE - 10
12.07.2018 11:00:00 28,8 18,9 16 9 ENE 1014,4 30
12.07.2018 10:00:00 27,0 17,0 15 8 ENE - 10
12.07.2018 09:00:00 26,0 16,0 11 6 ENE - 10
12.07.2018 08:00:00 25,2 17,4 13 7 ENE 1014,0 30
12.07.2018 07:00:00 25,0 19,0 13 7 ENE - 10
12.07.2018 06:00:00 27,0 10,0 0 0 N - 10
12.07.2018 05:00:00 27,4 12,6 5 3 O 1013,7 20
12.07.2018 04:00:00 26,0 14,0 16 9 O - 10
12.07.2018 03:00:00 25,0 20,0 16 9 OSO - 10
12.07.2018 02:00:00 26,0 18,2 11 6 OSO 1014,0 20
12.07.2018 01:00:00 28,0 10,0 9 5 SO - 10
12.07.2018 00:00:00 29,0 10,0 0 0 N - 10
11.07.2018 23:00:00 28,2 10,4 8 4 NE 1013,7 20
11.07.2018 22:00:00 29,0 12,0 11 6 ONO - 10
11.07.2018 21:00:00 26,0 20,0 21 11 O - 10
11.07.2018 20:00:00 26,6 20,4 16 9 OSO 1013,1 20
11.07.2018 19:00:00 28,0 21,0 18 10 SO - 10
11.07.2018 18:00:00 28,0 22,0 13 7 SO - 10
11.07.2018 17:00:00 28,6 20,6 24 13 O 1013,2 25
11.07.2018 16:00:00 29,0 19,0 37 20 O - 10
11.07.2018 15:00:00 28,0 19,0 35 19 SSO - 10
11.07.2018 14:00:00 27,8 20,1 41 22 SSO 1013,4 25
11.07.2018 13:00:00 28,0 19,0 35 19 SO - 10
11.07.2018 12:00:00 27,0 17,0 39 21 OSO - 10
11.07.2018 11:00:00 25,4 19,8 39 21 OSO 1013,7 20
11.07.2018 10:00:00 24,0 19,0 34 18 OSO - 10
11.07.2018 09:00:00 24,0 17,0 26 14 OSO - 10
11.07.2018 08:00:00 25,8 18,7 21 11 O 1013,4 20
11.07.2018 07:00:00 27,0 19,0 13 7 ONO - 10
11.07.2018 06:00:00 27,0 16,0 9 5 ONO - 10
11.07.2018 05:00:00 26,0 20,6 18 10 O 1013,0 20
11.07.2018 04:00:00 26,0 20,0 13 7 O - 10
11.07.2018 03:00:00 26,0 21,0 21 11 O - 10
11.07.2018 02:00:00 26,6 20,7 18 10 O 1013,3 20
11.07.2018 01:00:00 27,0 22,0 15 8 OSO - 10
11.07.2018 00:00:00 27,0 19,0 24 13 OSO - 10
10.07.2018 23:00:00 28,0 20,6 13 7 OSO 1013,6 20
10.07.2018 22:00:00 28,0 22,0 13 7 SO - 10
10.07.2018 21:00:00 28,0 23,0 5 3 E - 10
10.07.2018 20:00:00 29,2 24,1 11 6 ENE 1012,9 18

tt = Temperatura
td = dewpoint
ff = velocità del vento
dd = direzione del vento
ppp = reduced air pressure
vv = visibility

Stazioni seguenti

WeatherPro
AMSI
MeteoEarth